When you browse on this site, cookies collect data to enhance your experience and personalize the content and advertising you see.
Visit our Privacy Policy to learn more. By continuing to use the site, you agree to this use of cookies and data.
  • In Romania
  • List of Countries
  • For 7 days
  • Water Temperature
  • Satellite Maps
  • Weather Map
  • Weather Widgets
  • user-avatar
    Login

    Hourly Weather Fier

    Today, 27 March, Wednesday

    Time Temperature Precipitation Wind Pressure Humidity
    00:00 +13°C° 0 mm 2 mps 761 mmHg 68%
    01:00 +12°C° 0 mm 2 mps 761 mmHg 67%
    02:00 +12°C° 0.2 mm 2 mps 761 mmHg 68%
    03:00 +12°C° 0.2 mm 2 mps 761 mmHg 69%
    04:00 +12°C° 0.2 mm 2 mps 762 mmHg 69%
    05:00 +12°C° 0.2 mm 2 mps 762 mmHg 67%
    06:00 +12°C° 0.2 mm 2 mps 762 mmHg 65%
    07:00 +12°C° 0.2 mm 3 mps 762 mmHg 62%
    08:00 +14°C° 0 mm 3 mps 762 mmHg 55%
    09:00 +17°C° 0 mm 2 mps 762 mmHg 48%
    10:00 +19°C° 0 mm 2 mps 762 mmHg 41%
    11:00 +19°C° 0 mm 2 mps 762 mmHg 39%
    12:00 +20°C° 0 mm 2 mps 762 mmHg 38%
    13:00 +21°C° 0 mm 2 mps 762 mmHg 37%
    14:00 +20°C° 0.3 mm 2 mps 762 mmHg 42%
    15:00 +19°C° 0.3 mm 2 mps 762 mmHg 48%
    16:00 +18°C° 0.3 mm 2 mps 762 mmHg 53%
    17:00 +17°C° 1.1 mm 2 mps 762 mmHg 63%
    18:00 +16°C° 1.1 mm 2 mps 762 mmHg 72%
    19:00 +14°C° 1.1 mm 2 mps 762 mmHg 82%
    20:00 +14°C° 0.5 mm 2 mps 763 mmHg 83%
    21:00 +14°C° 0.5 mm 2 mps 763 mmHg 85%
    22:00 +13°C° 0.5 mm 1 mps 763 mmHg 86%
    23:00 +13°C° 0.2 mm 2 mps 763 mmHg 82%

    Tomorrow, 28 March, Thursday

    Time Temperature Precipitation Wind Pressure Humidity
    00:00 +13°C° 0.2 mm 2 mps 763 mmHg 79%
    01:00 +13°C° 0.2 mm 2 mps 763 mmHg 75%
    02:00 +12°C° 0 mm 3 mps 763 mmHg 69%
    03:00 +11°C° 0 mm 3 mps 763 mmHg 63%
    04:00 +11°C° 0 mm 3 mps 763 mmHg 57%
    05:00 +11°C° 0 mm 3 mps 763 mmHg 58%
    06:00 +11°C° 0 mm 3 mps 763 mmHg 58%
    07:00 +11°C° 0 mm 3 mps 763 mmHg 58%
    08:00 +12°C° 0 mm 4 mps 763 mmHg 55%
    09:00 +14°C° 0 mm 5 mps 763 mmHg 51%
    10:00 +15°C° 0 mm 5 mps 763 mmHg 47%
    11:00 +16°C° 0 mm 6 mps 763 mmHg 45%
    12:00 +17°C° 0 mm 6 mps 763 mmHg 43%
    13:00 +19°C° 0 mm 6 mps 763 mmHg 41%
    14:00 +17°C° 0 mm 6 mps 763 mmHg 42%
    15:00 +17°C° 0 mm 6 mps 763 mmHg 42%
    16:00 +17°C° 0 mm 6 mps 763 mmHg 42%
    17:00 +15°C° 0 mm 5 mps 763 mmHg 44%
    18:00 +14°C° 0 mm 5 mps 763 mmHg 47%
    19:00 +12°C° 0 mm 5 mps 763 mmHg 50%
    20:00 +10°C° 0 mm 5 mps 764 mmHg 52%
    21:00 +11°C° 0 mm 4 mps 764 mmHg 54%
    22:00 +10°C° 0 mm 4 mps 765 mmHg 56%
    23:00 +10°C° 0 mm 4 mps 765 mmHg 57%

    Day after tomorrow, 29 March, Friday

    Time Temperature Precipitation Wind Pressure Humidity
    00:00 +8°C° 0 mm 4 mps 765 mmHg 58%
    01:00 +8°C° 0 mm 4 mps 765 mmHg 60%
    02:00 +8°C° 0 mm 4 mps 765 mmHg 60%
    03:00 +7°C° 0 mm 4 mps 765 mmHg 61%
    04:00 +7°C° 0 mm 4 mps 766 mmHg 62%
    05:00 +8°C° 0 mm 5 mps 766 mmHg 61%
    06:00 +8°C° 0 mm 5 mps 766 mmHg 60%
    07:00 +9°C° 0 mm 5 mps 766 mmHg 59%
    08:00 +12°C° 0 mm 5 mps 766 mmHg 52%
    09:00 +14°C° 0 mm 5 mps 766 mmHg 44%
    10:00 +15°C° 0 mm 5 mps 766 mmHg 37%
    11:00 +16°C° 0 mm 5 mps 766 mmHg 35%
    12:00 +17°C° 0 mm 5 mps 766 mmHg 32%
    13:00 +17°C° 0 mm 5 mps 766 mmHg 30%
    14:00 +17°C° 0 mm 5 mps 765 mmHg 30%
    15:00 +17°C° 0 mm 5 mps 765 mmHg 30%
    16:00 +17°C° 0 mm 5 mps 765 mmHg 30%
    17:00 +15°C° 0 mm 5 mps 765 mmHg 36%
    18:00 +14°C° 0 mm 5 mps 765 mmHg 41%
    19:00 +12°C° 0 mm 5 mps 765 mmHg 47%
    20:00 +11°C° 0 mm 4 mps 766 mmHg 46%
    21:00 +11°C° 0 mm 4 mps 766 mmHg 46%
    22:00 +10°C° 0 mm 4 mps 766 mmHg 45%
    23:00 +8°C° 0 mm 4 mps 766 mmHg 45%

    30 March, Saturday

    Time Temperature Precipitation Wind Pressure Humidity
    00:00 +8°C° 0 mm 4 mps 766 mmHg 46%
    01:00 +8°C° 0 mm 4 mps 766 mmHg 46%
    02:00 +7°C° 0 mm 4 mps 766 mmHg 47%
    03:00 +7°C° 0 mm 4 mps 766 mmHg 48%
    04:00 +6°C° 0 mm 4 mps 766 mmHg 49%
    05:00 +8°C° 0 mm 3 mps 766 mmHg 50%
    06:00 +8°C° 0 mm 3 mps 766 mmHg 51%
    07:00 +9°C° 0 mm 3 mps 766 mmHg 52%
    08:00 +11°C° 0 mm 3 mps 766 mmHg 45%
    09:00 +13°C° 0 mm 4 mps 766 mmHg 38%
    10:00 +15°C° 0 mm 4 mps 766 mmHg 31%
    11:00 +17°C° 0 mm 4 mps 765 mmHg 30%
    12:00 +18°C° 0 mm 4 mps 764 mmHg 28%
    13:00 +19°C° 0 mm 4 mps 764 mmHg 27%
    14:00 +17°C° 0 mm 5 mps 764 mmHg 32%
    15:00 +17°C° 0 mm 6 mps 763 mmHg 36%
    16:00 +17°C° 0 mm 7 mps 763 mmHg 40%
    17:00 +15°C° 0 mm 6 mps 763 mmHg 50%
    18:00 +13°C° 0 mm 5 mps 763 mmHg 60%
    19:00 +10°C° 0 mm 5 mps 764 mmHg 70%
    20:00 +11°C° 0 mm 4 mps 764 mmHg 69%
    21:00 +11°C° 0 mm 3 mps 764 mmHg 69%
    22:00 +10°C° 0 mm 3 mps 764 mmHg 68%
    23:00 +10°C° 0 mm 3 mps 764 mmHg 65%

    31 March, Sunday

    Time Temperature Precipitation Wind Pressure Humidity
    00:00 +10°C° 0 mm 2 mps 764 mmHg 61%
    01:00 +9°C° 0 mm 2 mps 763 mmHg 57%
    02:00 +9°C° 0 mm 2 mps 763 mmHg 56%
    03:00 +9°C° 0 mm 2 mps 763 mmHg 54%
    04:00 +8°C° 0 mm 2 mps 763 mmHg 53%
    05:00 +9°C° 0 mm 2 mps 763 mmHg 53%
    06:00 +10°C° 0 mm 2 mps 763 mmHg 52%
    07:00 +12°C° 0 mm 2 mps 763 mmHg 52%
    08:00 +14°C° 0 mm 2 mps 762 mmHg 46%
    09:00 +16°C° 0 mm 1 mps 762 mmHg 39%
    10:00 +19°C° 0 mm 1 mps 762 mmHg 33%
    11:00 +19°C° 0 mm 2 mps 762 mmHg 33%
    12:00 +19°C° 0 mm 3 mps 761 mmHg 34%
    13:00 +20°C° 0 mm 4 mps 760 mmHg 35%
    14:00 +19°C° 0 mm 4 mps 760 mmHg 38%
    15:00 +18°C° 0 mm 4 mps 760 mmHg 42%
    16:00 +17°C° 0 mm 5 mps 759 mmHg 46%
    17:00 +15°C° 0 mm 4 mps 760 mmHg 53%
    18:00 +14°C° 0 mm 2 mps 760 mmHg 61%
    19:00 +13°C° 0 mm 1 mps 760 mmHg 69%
    20:00 +12°C° 0 mm 1 mps 760 mmHg 70%
    21:00 +12°C° 0 mm 1 mps 760 mmHg 70%
    22:00 +11°C° 0 mm 1 mps 761 mmHg 71%
    23:00 +11°C° 0 mm 1 mps 760 mmHg 70%

    1 April, Monday

    Time Temperature Precipitation Wind Pressure Humidity
    00:00 +11°C° 0 mm 1 mps 760 mmHg 70%
    01:00 +11°C° 0 mm 1 mps 760 mmHg 70%
    02:00 +10°C° 0 mm 1 mps 760 mmHg 69%
    03:00 +10°C° 0 mm 1 mps 760 mmHg 69%
    04:00 +10°C° 0 mm 1 mps 760 mmHg 68%
    05:00 +11°C° 0 mm 1 mps 760 mmHg 66%
    06:00 +12°C° 0 mm 1 mps 760 mmHg 64%
    07:00 +13°C° 0 mm 1 mps 760 mmHg 62%
    08:00 +15°C° 0 mm 1 mps 760 mmHg 57%
    09:00 +16°C° 0 mm 1 mps 760 mmHg 53%
    10:00 +19°C° 0 mm 1 mps 760 mmHg 49%
    11:00 +19°C° 0 mm 2 mps 760 mmHg 48%
    12:00 +20°C° 0 mm 3 mps 759 mmHg 48%
    13:00 +20°C° 0 mm 4 mps 759 mmHg 47%
    14:00 +20°C° 0 mm 4 mps 759 mmHg 52%
    15:00 +19°C° 0 mm 4 mps 759 mmHg 57%
    16:00 +18°C° 0 mm 4 mps 758 mmHg 61%
    17:00 +17°C° 0 mm 3 mps 759 mmHg 69%
    18:00 +15°C° 0 mm 2 mps 759 mmHg 77%
    19:00 +13°C° 0 mm 1 mps 759 mmHg 85%
    20:00 +13°C° 0 mm 1 mps 760 mmHg 84%
    21:00 +13°C° 0 mm 1 mps 760 mmHg 84%
    22:00 +12°C° 0 mm 1 mps 760 mmHg 84%
    23:00 +12°C° 0 mm 1 mps 760 mmHg 83%
    Show more